Location: �perlecques
(50.8057°N, 2.1521°E)
Time: 19:44:58
(UTC+00:00)

Vanguard 1 Rocket - Pass Details

Date: 04 August 2021
Orbit: 650 x 4226 km, 34.3° (Epoch: 25 September)

Event Time Altitude Azimuth Distance (km) Brightness Sun altitude
Rises 05:36:10 0° 180° (S) 8,459 12.2 9.9°
Reaches altitude 10° 05:47:54 10° 158° (SSE) 7,245 12.1 11.7°
Maximum altitude 05:56:25 13° 137° (SE) 6,568 12.3 13.0°
Drops below altitude 10° 06:03:54 10° 116° (ESE) 6,304 12.7 14.2°
Sets 06:12:01 0° 93° (E) 6,550 13.5 15.5°
